Location: Cheyres
(46.8153°N, 6.7877°E)
Time: 04:32:08
(UTC+00:00)

Cosmos 2344 - Pass Details

Date: 11 May 2021
Orbit: 1239 x 3003 km, 63.3° (Epoch: 18 June)

Event Time Altitude Azimuth Distance (km) Brightness Sun altitude
Rises 23:27:59 0° 319° (NW) 4,514 7.2 -25.0°
Reaches altitude 10° 23:30:35 10° 320° (NW) 3,667 6.6 -25.0°
Maximum altitude 23:39:47 84° 50° (NE) 1,870 4.3 -25.0°
Enters shadow 23:51:09 15° 140° (SE) 4,538 6.0 -24.9°
